Regional Weather Roundup
Issued by NWS

Home | Current Version | Previous Version | Text Only | Print | Product List | Glossary Off
Versions: 1 2 3 4 5 6 7 8 9 10 11 12 13 14 15 16 17 18 19 20 21 22 23 24 25 26 27 28 29 30 31 32 33 34 35 36 37 38 39 40 41 42 43 44 45 46 47 48 49 50

000
ASUS45 KSLC 020210
RWRUT

UTAH REGIONAL WEATHER ROUNDUP
NATIONAL WEATHER SERVICE SALT LAKE CITY UT
700 PM MST SUN MAR 01 2015

UTZ001>011-023>025-020300-

NORTHERN UTAH

CITY           SKY/WX    TMP DP  RH WIND       PRES   REMARKS
BRIGHAM CITY   CLOUDY    43  24  47 CALM      30.01F
HILL AFB       MOCLDY    38  26  62 E10       29.97F WCI  31
LOGAN          CLOUDY    43  21  41 SW5       30.01S
OGDEN          MOCLDY    40  25  55 NW5       29.98F
PROVO AIRPORT  MOCLDY    41  28  60 CALM      30.00F
SALT LAKE CITY CLOUDY    41  29  62 W5        29.98F
VERNAL         CLOUDY    39  24  55 NE3       30.05S
WENDOVER       CLEAR     41  18  38 CALM      30.01R
HEBER CITY     CLOUDY    36  28  75 N3        29.99F
WEST JORDAN    CLEAR     37  30  75 NW5       30.00S WCI  34

$$

UTZ012>022-026-027-020300-

SOUTHERN/CENTRAL UTAH

CITY           SKY/WX    TMP DP  RH WIND       PRES   REMARKS
BLANDING       CLOUDY    33  33 100 N5        30.12S WCI  29
BRYCE CANYON   LGT SNOW  27  26  96 SE8       30.00S FOG     WCI  19
CEDAR CITY     LGT SNOW  33  31  92 CALM      29.99R FOG
DELTA          CLOUDY    40  33  76 S9        30.00R WCI  34
HANKSVILLE     CLOUDY    39  36  87 CALM      30.09R
MILFORD        CLOUDY    37  32  82 CALM      30.00R
MOAB/CYNLANDS  CLOUDY    40  35  83 CALM      30.05R
PRICE          CLOUDY    34  31  88 S5        30.05R WCI  30
ST GEORGE      CLOUDY    45  37  76 CALM      30.03S
KANAB          CLOUDY    36  34  93 N7        30.02F WCI  30

$$

REGIONAL REPORTS     COLORADO/ARIZONA

CITY           SKY/WX    TMP DP  RH WIND       PRES   REMARKS
CRAIG, CO      CLOUDY    32  24  72 CALM      30.06S
GRAND JUNCTION LGT RAIN  40  33  76 S9        30.06R WCI  34
RIFLE          CLOUDY    42  27  55 E5        30.05R
MONTROSE       CLOUDY    34  32  92 CALM      30.09S
CORTEZ         MOCLDY    37  35  92 NE3       30.06R
PAGE, AZ       LGT RAIN  37  33  85 SW3       30.03F
GRAND CANYON   FLURRIES  34  32  92 E5        29.98F WCI  30
KINGMAN        LGT RAIN  43  41  93 N9        29.94S
FLAGSTAFF      LGT RAIN  39  36  89 SW15G26   30.00R WCI  31

$$

REGIONAL REPORTS    NEVADA/IDAHO/WYOMING

CITY           SKY/WX    TMP DP  RH WIND       PRES   REMARKS
LAS VEGAS, NV  LGT RAIN  49  43  80 CALM      29.95R
ELY            CLOUDY    34  27  75 NE3       29.98R
ELKO           CLOUDY    41  21  44 E3        29.94S
POCATELLO, ID  CLEAR     28   5  37 S3        30.02S
BURLEY         CLEAR     34   6  31 E3        30.00S
EVANSTON, WY   CLOUDY    26  19  74 E8        30.02R WCI  18
ROCK SPRINGS   MOCLDY    28  17  63 CALM      30.04R
KEMMERER       PTCLDY    27  16  63 E6        30.02F WCI  20

$$


USA.gov is the U.S. government's official web portal to all federal, state and local government web resources and services.